Wind_Speed
12 19 22 23 24 23 22 23 24 25 26 26 26 26 25 22 21 20 15 10 7 5 3 1 2 3 4 5 6 7 9 10 11 13 12 12 13 14 14 14 16 20 25 29 30 28 28 28 27 27 27 27 29 29 28 28 28 28 27 27 27 25 22 23 25 24 20 14 9 9 10 11 11 11 12 13 14 15 14 14 14 14 14 15 16
12 16 19 22 23 22 22 23 25 25 26 27 26 26 26 25 24 23 19 16 13 10 9 6 3 1 1 1 2 3 3 5 7 10 12 11 10 12 13 14 15 18 22 27 29 29 29 29 28 28 28 28 28 28 28 27 27 27 27 26 27 27 25 26 29 26 19 15 11 6 4 6 8 10 13 14 15 15 14 14 14 15 15 15 16
10 11 15 20 21 21 22 23 24 24 25 27 27 27 28 27 25 23 21 21 17 13 13 13 8 5 5 5 4 3 3 4 4 5 9 11 10 10 11 12 13 16 19 22 26 28 29 30 29 29 29 29 28 29 28 28 28 28 29 28 27 26 24 26 31 29 21 18 12 5 3 3 4 9 14 15 15 15 14 15 15 16 16 15 16
9 9 11 16 19 21 22 22 23 24 26 28 28 27 28 27 26 23 21 22 20 14 14 14 10 8 7 6 5 3 2 1 2 2 5 8 10 11 12 12 13 15 17 19 22 25 28 30 29 29 29 29 29 30 30 30 30 31 31 32 30 26 23 24 31 32 26 20 10 3 4 4 2 7 13 15 16 16 16 17 17 17 17 16 16
8 9 9 12 17 20 21 22 23 25 27 28 28 27 27 26 25 24 23 22 21 17 15 14 11 10 10 9 8 6 4 3 3 3 3 4 7 9 11 12 13 14 16 17 19 22 25 27 28 28 28 28 28 30 31 31 31 33 33 34 34 31 28 26 29 31 30 28 19 7 5 4 3 6 9 10 15 18 18 18 18 18 18 17 16
7 8 9 11 16 19 21 22 24 26 27 27 28 28 27 25 24 24 24 23 22 18 16 15 13 12 13 12 11 10 8 8 7 5 3 3 3 5 7 9 10 12 14 15 17 19 22 25 26 27 27 27 27 29 30 31 31 33 34 35 36 36 33 27 28 32 32 31 27 18 10 5 5 9 7 3 10 16 17 18 18 19 19 18 17
6 8 9 12 16 17 19 21 23 25 26 27 28 29 29 27 25 24 24 24 23 20 17 17 16 15 14 12 12 12 12 12 11 9 6 5 5 5 7 9 9 9 11 13 15 17 19 21 24 26 26 25 25 27 30 30 31 33 34 36 36 36 35 30 29 34 32 30 32 28 18 8 9 12 7 3 4 8 15 18 18 18 18 19 19
5 7 8 11 14 16 17 20 22 24 27 29 30 30 29 28 26 26 26 25 23 21 19 18 17 16 14 13 13 12 11 10 9 9 7 6 6 7 7 9 10 10 10 11 13 15 16 18 20 23 25 25 24 25 28 29 30 31 32 35 36 36 36 33 32 33 32 31 33 33 24 15 15 15 13 10 6 2 9 13 17 20 20 20 21
5 7 8 10 15 18 18 18 21 24 27 29 29 29 28 28 28 28 29 28 25 22 20 19 17 16 15 15 14 13 11 10 8 8 9 8 8 7 8 9 10 10 10 10 11 13 14 16 17 20 23 25 25 25 26 28 29 30 31 33 35 36 37 35 34 34 35 34 33 32 28 21 18 16 15 14 8 4 5 6 11 15 17 23 25
5 7 10 13 16 17 17 17 21 24 26 27 28 28 28 28 29 30 30 29 27 25 23 21 19 18 16 16 15 14 13 12 10 10 10 9 9 9 9 9 10 10 11 10 10 11 12 14 15 17 19 22 24 25 25 26 28 29 30 31 34 36 36 36 35 34 36 37 35 33 29 22 16 12 13 16 10 6 5 5 12 15 13 20 28
5 7 10 13 15 15 17 19 22 24 25 27 27 26 26 26 28 30 29 28 28 27 26 25 23 21 19 17 16 15 14 13 13 14 13 12 11 11 10 10 10 10 11 11 11 11 11 12 13 15 17 19 22 24 25 26 27 29 29 29 32 34 36 36 35 34 33 35 36 35 33 31 26 19 19 22 14 7 6 4 12 19 16 16 23
5 6 7 9 11 14 17 19 21 23 24 25 25 24 24 25 27 29 29 28 27 27 27 27 26 24 21 19 17 15 14 14 15 15 14 13 13 12 11 10 11 11 11 11 12 12 12 12 12 13 14 16 19 21 23 25 26 27 28 29 29 32 35 36 35 35 33 33 35 36 36 37 36 31 29 30 25 19 13 6 10 17 13 13 18
5 6 6 6 7 11 13 15 17 19 20 21 22 23 24 26 27 28 28 26 26 26 26 27 27 26 24 22 21 18 17 16 15 15 14 14 13 13 12 12 12 12 12 13 13 13 13 13 13 13 13 14 16 18 20 23 25 26 27 28 29 30 32 35 36 36 35 34 34 36 37 37 38 37 33 32 30 26 17 8 11 16 11 10 15
5 6 5 5 7 9 10 11 13 14 15 18 21 23 25 27 27 27 26 25 25 24 24 25 25 25 24 24 23 22 21 20 19 17 16 15 14 13 13 13 13 13 13 14 14 14 14 14 14 14 14 14 14 16 18 20 22 24 26 27 29 30 30 33 36 36 36 36 34 35 36 37 38 38 36 33 30 28 22 13 12 10 8 9 12
6 6 5 6 7 8 7 8 9 11 14 18 21 23 24 25 25 24 24 23 23 23 23 23 23 23 24 24 24 24 23 22 22 21 19 18 16 15 14 13 13 13 13 13 13 13 14 15 15 15 15 16 15 16 17 18 20 22 24 26 28 29 30 31 34 36 37 37 36 34 35 36 37 37 37 36 33 31 30 26 19 10 4 5 7
6 6 5 5 6 6 6 8 9 13 17 20 21 21 22 22 22 22 21 21 21 22 22 21 21 22 23 23 23 23 23 24 23 22 21 20 19 18 17 15 14 14 14 14 13 13 14 14 15 16 17 17 17 16 16 17 19 21 23 25 27 28 29 30 32 34 37 38 38 37 35 34 35 36 37 38 37 35 33 33 30 20 9 4 4
5 5 4 4 5 6 7 10 12 15 17 18 19 20 20 19 19 18 18 18 19 20 21 22 22 22 23 23 23 23 23 23 23 22 22 21 21 21 20 18 17 16 15 15 15 14 13 14 16 18 19 18 18 17 17 17 18 20 22 23 25 27 29 30 30 32 34 36 38 39 38 36 33 32 35 37 38 38 36 35 35 32 22 10 5
4 4 4 4 4 5 8 10 12 13 15 16 17 17 17 17 17 17 17 17 16 16 17 19 21 23 24 24 24 23 23 22 22 22 22 22 23 23 22 22 20 19 19 17 16 15 14 14 16 18 19 19 19 18 17 18 18 20 22 23 24 25 28 30 31 32 33 33 35 38 38 39 37 33 33 35 36 38 37 37 36 38 35 22 10
3 3 1 2 3 5 7 9 10 11 12 13 13 14 15 15 15 16 17 17 16 16 16 16 18 20 22 23 23 23 23 23 23 23 23 24 24 24 24 23 22 22 21 21 19 18 16 15 15 18 19 19 19 18 18 18 18 20 21 23 24 25 27 29 30 31 32 33 34 36 37 38 38 36 35 35 35 36 36 36 35 36 39 35 24
3 3 3 3 3 4 5 6 6 7 8 9 10 11 12 13 14 15 15 16 16 16 16 16 16 17 18 20 20 21 21 21 21 22 22 23 23 23 24 24 23 23 23 22 22 22 20 18 17 17 18 19 20 20 19 18 18 20 21 23 24 25 27 29 30 31 32 32 33 34 36 36 36 36 38 38 37 36 36 35 33 32 35 36 32
4 5 4 4 4 4 3 2 3 5 6 6 7 7 8 10 12 12 13 13 14 14 14 14 14 14 14 16 17 18 19 18 18 19 20 21 21 21 22 22 22 23 23 23 23 23 22 21 20 19 19 19 20 20 20 20 20 20 21 22 24 25 26 28 29 31 31 32 33 34 35 36 35 35 37 39 39 39 38 37 36 32 31 32 31
5 5 4 4 5 4 4 3 4 4 4 4 4 5 5 6 9 10 11 12 12 12 12 12 13 12 12 13 14 14 15 16 16 18 19 19 20 20 20 21 22 22 22 22 22 22 21 21 21 20 20 19 19 19 20 20 21 22 22 23 23 24 26 28 28 30 31 31 33 34 34 34 33 35 37 38 38 39 37 38 39 37 34 33 32
5 5 4 4 4 4 4 4 5 5 5 5 4 4 4 5 7 9 11 12 12 13 13 12 12 13 11 11 12 12 14 15 15 16 17 18 19 19 20 21 21 22 22 22 22 22 22 21 21 20 20 20 20 19 19 19 20 22 23 24 24 25 26 28 29 30 31 31 32 33 33 32 32 34 37 37 37 37 37 37 38 39 37 36 35
5 4 4 5 5 4 5 5 4 4 4 4 4 4 5 6 7 8 10 12 13 14 15 14 14 15 13 13 14 14 15 16 16 16 17 18 18 18 18 20 20 20 21 21 21 22 22 23 22 22 21 21 21 20 19 18 18 20 22 24 25 25 27 28 29 30 30 31 32 33 32 31 31 34 36 36 35 35 35 36 37 38 38 38 37
5 4 4 4 5 5 5 5 4 4 4 4 4 5 5 6 7 7 8 10 12 13 15 16 15 16 17 16 17 18 19 19 19 19 20 21 21 20 19 21 20 20 20 20 20 21 22 23 23 24 23 22 22 21 20 20 19 19 20 22 24 25 27 28 29 29 30 30 32 33 32 30 30 34 35 34 33 34 34 35 37 37 37 37 36
4 5 4 3 3 4 4 4 4 4 4 5 5 6 6 6 7 7 8 9 10 12 14 15 15 17 18 18 19 21 22 22 22 23 24 26 26 26 26 26 25 24 25 24 23 23 23 23 24 24 24 24 23 22 21 21 21 20 20 21 23 24 26 27 29 29 30 31 32 33 32 31 31 34 35 32 31 33 35 36 37 37 36 35 34
4 4 3 2 1 1 2 2 3 3 4 4 5 5 6 6 8 9 10 11 12 14 17 18 18 19 20 21 22 24 25 25 24 24 25 27 28 29 30 31 30 29 29 29 28 28 27 26 26 25 25 26 26 25 23 23 22 21 22 23 24 25 26 27 28 29 30 31 32 32 32 32 33 34 35 33 31 33 34 36 37 37 34 33 33
3 2 2 2 2 1 1 2 3 4 5 6 6 7 8 8 10 12 13 14 15 17 19 20 21 22 23 24 26 28 29 30 30 29 29 30 30 30 31 32 32 31 31 30 30 31 30 29 28 27 27 26 26 27 27 26 24 23 23 24 25 26 27 28 28 29 29 30 31 32 32 32 33 35 35 34 33 33 33 34 36 36 34 33 33
5 4 5 5 4 4 5 6 6 6 7 7 8 9 10 10 12 13 14 14 16 17 18 20 22 23 24 25 26 28 30 32 33 33 34 34 34 34 34 33 33 32 31 31 31 31 31 31 30 30 29 27 26 27 28 28 27 25 25 25 26 28 29 30 31 30 29 29 30 31 32 33 34 35 36 36 36 36 35 36 36 34 33 33 33
6 6 6 6 6 8 9 9 8 9 9 9 10 10 11 12 13 14 15 15 15 17 18 20 22 23 24 25 26 28 29 31 32 32 34 35 36 37 37 37 36 34 32 31 31 31 31 32 32 32 31 29 28 29 29 28 27 27 27 28 28 29 30 32 33 33 32 31 30 30 31 32 33 34 36 36 37 38 39 40 38 35 34 35 34
6 6 6 7 7 8 9 10 10 11 11 11 12 12 13 14 15 16 16 15 15 16 18 21 22 23 24 24 26 27 29 30 31 31 32 34 35 37 38 39 39 38 36 34 33 33 33 33 32 32 32 32 32 32 31 29 28 28 29 30 30 31 32 32 34 34 34 33 32 31 31 31 31 32 34 35 36 38 40 41 41 38 37 38 37
6 6 7 7 6 7 9 11 11 11 11 11 12 13 13 14 14 15 15 14 14 16 18 21 23 24 25 25 26 28 29 30 31 31 32 34 34 35 37 39 39 39 39 38 38 37 36 36 34 33 34 34 35 35 34 31 29 29 31 31 32 33 33 33 34 35 36 35 34 33 32 31 31 31 31 32 34 36 38 39 41 41 41 42 42
6 6 6 7 8 9 11 12 11 11 11 10 10 10 11 12 12 13 12 12 13 16 19 22 24 25 26 27 27 28 29 30 31 32 32 33 33 34 36 37 38 38 39 40 41 41 40 40 38 36 37 37 37 37 36 32 31 32 32 33 34 35 35 35 35 35 36 36 35 34 34 33 32 31 30 31 32 33 34 35 37 40 42 44 45
5 5 5 6 8 11 12 12 12 11 9 7 6 7 9 10 10 10 11 12 15 19 22 25 26 27 27 28 28 28 29 30 31 31 32 33 33 34 35 35 35 35 37 39 40 41 42 42 41 40 41 42 42 43 40 34 32 34 34 34 35 37 37 37 36 36 36 37 37 36 35 35 35 32 30 30 31 31 30 31 32 35 40 43 45
5 5 5 7 9 10 11 11 8 5 4 5 7 8 8 8 9 11 14 16 18 21 23 25 26 27 27 27 27 27 29 30 32 32 32 32 32 33 34 35 34 34 36 37 38 40 41 42 43 43 43 45 48 50 47 39 33 32 33 34 36 37 38 38 38 38 37 37 38 37 37 37 36 35 33 32 30 29 29 29 31 34 37 39 41
5 6 7 11 12 11 8 4 1 4 6 8 8 8 8 10 12 14 16 17 18 21 23 24 24 25 26 26 26 28 30 32 32 31 31 31 31 33 34 35 35 36 38 38 39 40 40 42 43 43 43 45 50 54 53 49 42 35 32 34 36 37 38 38 39 39 38 38 38 38 38 38 38 37 37 36 33 31 29 30 32 33 34 35 38
7 9 10 9 8 6 5 5 6 8 8 8 8 9 11 13 14 15 16 17 19 21 22 22 23 24 25 26 27 28 30 31 31 31 32 32 33 35 35 35 35 37 38 39 40 41 41 42 44 44 44 45 49 52 54 54 50 42 36 36 36 37 38 39 39 40 39 38 39 39 38 38 39 38 37 37 36 32 31 32 33 33 33 33 37
8 9 7 6 6 7 8 8 9 9 8 8 9 11 13 14 15 15 17 19 20 20 21 22 23 25 26 27 27 28 29 30 31 32 33 34 35 36 36 35 35 36 38 40 40 41 43 44 44 45 45 44 47 52 52 51 50 46 42 41 39 37 37 38 39 40 40 39 40 41 40 39 39 39 38 38 36 33 32 33 34 33 31 33 38
4 3 4 5 7 8 9 9 10 9 8 9 11 14 15 16 16 17 18 19 20 21 23 24 26 27 28 28 27 28 29 30 31 33 33 35 36 36 36 35 35 36 38 40 40 40 42 44 43 44 45 44 46 50 50 47 46 45 44 43 40 37 37 38 39 39 39 39 39 41 41 41 41 41 40 39 38 36 34 35 35 32 29 34 40
2 2 3 6 7 8 8 9 8 8 9 13 15 17 16 17 17 18 19 21 23 25 27 28 29 29 29 29 29 29 30 31 32 34 35 35 34 34 34 35 35 36 37 38 39 39 41 44 44 44 45 46 46 49 50 48 46 46 46 45 42 40 39 40 40 39 38 38 38 39 40 41 41 41 41 40 40 39 37 37 37 32 31 37 38
4 2 4 5 5 6 7 6 6 9 13 16 16 18 18 19 20 20 21 24 26 28 30 30 31 31 31 31 30 29 30 31 31 32 33 34 32 32 34 35 35 35 36 37 39 39 40 43 45 45 45 46 46 47 49 49 48 48 48 47 45 44 44 43 43 41 39 38 38 39 39 40 41 41 40 39 39 40 39 39 39 37 39 43 35
2 3 4 4 5 6 6 6 9 12 14 15 17 20 20 21 22 23 25 27 28 29 30 31 32 33 32 32 31 30 30 31 31 31 32 34 34 33 33 34 33 34 35 37 38 38 37 40 44 43 43 44 45 44 45 47 48 48 49 49 49 49 49 47 44 43 42 41 42 41 40 40 40 40 40 38 37 38 39 40 42 43 46 46 36
3 3 3 5 7 7 8 10 12 13 13 16 19 21 22 22 24 25 26 27 28 29 31 32 33 33 33 33 33 32 31 31 31 31 32 34 35 33 33 32 31 32 33 33 34 34 34 36 38 40 39 40 41 42 41 43 45 45 46 48 49 50 51 49 46 44 44 44 44 43 42 41 40 40 41 40 38 37 37 38 42 45 47 46 39
3 2 3 6 8 9 11 13 13 12 14 17 19 22 23 23 25 26 27 28 29 30 31 32 33 34 34 35 34 33 32 32 32 32 32 33 33 32 31 30 29 29 30 30 30 30 30 31 32 34 35 34 35 38 39 38 39 41 42 44 46 47 48 49 48 47 47 46 46 45 44 43 42 41 43 43 41 39 38 38 40 43 44 43 38
3 2 4 7 10 11 13 14 13 14 16 18 19 20 23 25 26 27 28 29 31 31 32 33 34 34 35 35 36 35 34 33 33 32 31 32 31 30 30 29 28 28 28 28 28 27 28 28 28 29 32 32 31 33 35 34 35 38 40 41 43 43 44 45 45 46 46 47 47 47 46 44 43 43 43 43 40 39 38 38 39 40 41 39 36
2 4 7 10 12 13 13 15 16 17 18 19 19 19 21 25 27 28 28 29 30 32 32 33 33 34 34 35 36 36 34 33 32 30 30 30 30 30 30 29 29 29 28 28 29 27 26 27 27 28 31 32 31 32 34 34 35 37 39 41 42 43 43 43 42 42 43 44 44 45 44 43 41 41 40 38 37 37 38 38 39 39 38 37 35
3 5 9 12 13 14 15 17 18 19 20 21 20 19 21 24 26 27 29 29 30 30 32 32 33 34 35 34 34 34 34 32 32 31 31 31 30 30 30 29 29 30 29 29 29 29 27 27 28 29 31 33 33 34 35 36 37 38 40 40 40 40 41 41 40 39 38 39 41 42 42 40 38 37 37 37 37 37 35 34 35 36 36 36 35
5 7 9 11 13 15 16 17 19 21 22 22 21 21 23 24 26 28 29 30 30 30 31 32 33 34 33 32 32 32 33 33 33 32 31 31 30 30 31 31 31 32 32 31 30 30 29 30 30 31 31 32 32 32 32 34 36 37 38 37 36 36 39 39 38 36 36 35 36 36 36 35 33 32 32 33 34 34 33 32 32 32 34 35 36
6 8 10 12 14 15 16 18 20 22 22 22 22 23 25 25 26 28 28 29 31 31 30 32 32 32 32 31 31 32 33 33 34 33 32 31 31 31 32 33 33 33 33 34 34 33 32 33 33 32 31 29 29 29 30 34 37 38 39 39 37 36 38 40 41 41 40 37 31 29 28 27 26 26 26 27 28 29 30 30 32 32 32 33 33
8 10 12 13 13 14 16 19 21 21 21 21 23 25 26 26 27 28 28 29 31 31 31 31 30 30 31 32 32 33 33 33 33 32 32 32 32 31 31 33 34 34 34 36 38 39 39 39 38 36 35 34 35 37 39 40 41 42 42 43 42 41 40 41 43 44 42 36 29 26 25 24 24 22 22 22 24 25 26 27 29 31 30 30 31
10 12 13 13 14 16 18 19 20 21 21 22 25 26 27 27 27 27 27 28 30 30 30 30 30 30 32 33 33 33 32 31 31 31 31 32 32 31 31 32 34 35 36 37 38 40 42 42 41 41 41 41 42 44 43 42 41 41 41 41 41 41 41 41 42 42 37 31 26 23 21 21 21 20 20 20 22 23 24 24 25 26 27 28 29
Wind_Direction
39 39 37 31 30 32 34 36 38 38 37 37 37 37 38 41 44 44 44 46 45 49 62 122 185 222 233 237 238 234 235 231 227 226 226 233 234 232 236 234 227 224 223 222 221 220 219 219 218 218 218 217 218 219 217 216 214 212 211 210 204 197 196 198 198 191 174 159 165 185 196 202 208 209 207 208 214 221 224 222 221 224 224 220 221
38 36 33 31 30 32 36 38 39 39 37 37 38 37 39 42 41 41 47 48 44 45 50 51 53 38 353 249 222 229 229 222 228 230 229 237 240 233 235 236 233 231 227 225 225 224 223 222 221 222 221 219 220 222 221 218 216 214 210 208 206 201 197 196 195 189 177 171 165 155 184 216 220 214 211 215 220 224 225 220 218 223 225 222 222
37 32 30 31 30 32 37 40 40 40 39 39 40 39 39 40 40 43 48 48 45 46 45 41 41 44 41 51 85 120 119 154 184 208 221 232 242 243 240 239 239 238 235 231 229 228 227 226 225 226 225 222 220 219 218 216 215 213 211 210 205 202 201 199 198 197 187 173 161 155 178 183 234 228 218 218 220 221 218 214 217 222 225 225 225
36 33 28 29 30 31 36 40 41 41 40 39 40 41 40 39 41 43 49 49 47 50 49 41 35 33 25 22 33 52 71 150 220 234 236 235 241 248 249 248 250 249 245 240 237 234 231 229 228 228 228 226 224 222 219 216 215 213 212 212 206 199 199 200 203 204 196 181 164 138 159 158 243 224 209 212 215 217 215 213 217 221 222 224 225
37 36 28 29 29 28 33 40 43 43 41 40 39 41 42 42 42 44 49 51 48 53 57 51 42 36 30 24 23 18 7 340 320 309 285 262 252 258 261 258 257 256 253 250 246 242 238 234 231 230 230 229 227 226 224 222 220 216 213 212 208 204 202 200 202 205 205 203 197 172 145 188 229 178 178 204 211 212 216 217 221 224 225 225 224
35 39 35 35 32 27 28 35 42 44 42 41 42 43 45 45 45 45 48 50 50 55 59 58 55 48 40 34 28 21 18 21 28 29 9 341 306 280 273 271 268 261 257 255 253 249 245 240 235 233 233 232 229 229 229 226 223 220 217 213 211 210 207 201 200 205 208 209 209 209 207 207 176 152 144 182 209 214 218 219 224 228 229 229 225
30 38 35 35 36 30 25 28 38 45 45 45 45 44 45 46 46 45 46 48 51 54 59 60 58 54 50 46 40 32 26 26 29 28 18 3 347 318 296 290 286 276 265 259 256 254 251 246 241 238 237 237 234 231 230 229 227 225 222 218 215 213 209 204 202 205 208 209 211 216 222 219 182 169 167 151 175 221 222 219 224 228 230 231 227
41 42 35 31 35 34 27 25 35 45 48 48 47 44 44 45 45 46 46 47 49 52 56 58 56 52 51 52 48 40 31 27 27 26 21 3 341 325 312 303 298 295 284 271 263 259 256 252 247 243 240 241 240 237 234 233 232 229 226 223 219 216 213 210 208 205 207 210 211 215 226 227 200 186 190 182 149 172 213 216 223 225 228 230 227
61 58 48 32 30 33 31 27 34 43 49 50 49 47 46 46 47 46 46 46 47 50 53 54 55 53 51 48 42 35 28 26 28 30 25 12 355 337 323 311 302 299 297 289 276 266 263 259 253 248 244 243 243 242 240 237 235 233 231 227 223 220 218 216 215 211 210 212 211 215 223 224 209 199 198 191 172 155 180 203 209 211 226 231 227
60 60 52 39 31 32 33 33 37 42 48 52 52 49 48 48 49 48 46 45 45 46 49 50 50 50 49 46 41 34 26 22 23 26 22 13 4 352 338 324 310 300 298 299 293 280 272 267 262 256 251 249 246 245 245 242 240 238 237 234 229 225 223 221 220 219 217 216 214 213 213 212 208 208 205 200 195 179 176 189 189 186 206 225 223
54 55 49 41 34 32 34 35 37 40 45 50 51 49 48 48 50 50 48 46 45 45 46 47 46 46 45 43 40 34 28 23 21 21 19 14 8 1 350 338 327 313 300 298 299 295 286 278 272 266 260 255 251 249 248 247 245 242 241 240 235 230 227 226 225 225 224 221 218 215 212 210 207 207 206 201 198 182 163 175 191 192 201 215 218
62 61 52 39 31 29 30 33 35 37 41 45 47 47 47 47 49 50 47 45 46 45 45 45 44 44 43 42 40 35 32 29 23 19 16 13 8 1 356 348 341 334 320 308 302 297 292 288 283 277 271 265 259 256 253 251 250 247 244 243 242 237 232 230 229 229 228 225 222 220 219 218 216 215 212 207 206 201 185 171 183 188 203 223 218
74 70 57 43 34 30 31 33 34 35 38 42 45 46 45 45 47 47 44 42 44 45 45 45 44 43 42 41 40 39 38 34 26 20 16 12 6 360 357 350 343 340 334 328 320 309 296 290 289 286 284 279 272 267 262 257 254 251 248 247 246 244 238 234 233 232 232 230 228 225 223 223 223 223 221 217 215 208 196 177 179 184 188 206 208
75 73 63 51 43 39 40 41 40 41 42 46 48 47 46 45 45 45 42 40 41 42 43 43 42 42 42 42 41 40 40 37 32 28 21 15 9 2 358 351 343 337 332 329 329 324 310 296 290 290 290 288 281 274 270 265 259 255 253 250 249 249 245 241 238 237 236 236 234 232 228 226 226 226 224 223 220 212 204 186 173 185 186 171 185
72 73 67 61 55 50 49 51 52 51 49 50 50 49 48 46 45 44 41 40 40 39 40 40 40 40 42 42 41 40 38 36 35 33 29 24 18 10 3 355 346 338 331 325 321 321 319 307 293 290 293 290 285 279 274 270 265 260 257 254 253 253 251 248 244 241 240 240 238 237 235 231 229 228 226 226 224 219 216 204 182 166 175 175 181
72 73 72 70 67 65 60 54 53 50 48 49 48 48 48 46 45 44 42 42 41 40 40 40 40 41 42 42 41 40 38 35 33 32 30 29 26 21 13 6 356 344 336 330 323 318 316 310 300 295 295 293 289 285 279 274 269 264 261 259 257 255 254 253 250 247 244 243 242 241 241 238 234 231 229 229 227 225 225 218 201 183 177 191 200
78 83 87 79 68 65 61 54 52 51 50 49 49 48 49 47 45 43 41 42 41 40 40 42 44 45 44 43 42 41 40 37 33 31 30 30 29 26 21 17 12 2 352 343 334 325 316 308 302 298 297 295 293 290 285 280 275 269 265 263 261 259 257 256 255 253 249 247 246 245 245 244 241 236 233 231 230 228 227 224 215 203 197 192 183
92 91 86 79 66 55 54 52 49 50 51 52 52 52 52 50 47 44 40 39 37 35 35 36 41 44 44 45 43 42 41 38 35 32 30 29 28 26 22 20 18 13 7 0 350 341 331 319 311 307 304 300 297 295 291 286 280 275 270 267 265 262 260 258 258 257 255 252 250 248 247 247 245 242 239 235 232 231 229 227 224 215 210 207 191
104 108 124 116 84 53 46 44 41 45 47 50 51 50 51 49 47 45 42 39 37 35 31 27 29 32 36 39 40 41 41 38 36 33 31 30 27 24 21 18 17 14 11 9 5 358 349 337 325 317 313 309 304 301 298 293 286 280 275 272 270 266 263 261 260 259 258 256 254 252 250 248 247 245 244 241 236 234 231 229 229 221 216 215 206
156 172 194 175 120 81 57 41 37 40 39 40 40 40 43 41 41 40 37 36 35 33 31 26 21 19 21 26 29 32 34 34 34 32 31 30 27 24 21 18 16 14 10 9 8 5 1 354 345 333 324 317 312 307 303 298 292 285 279 275 274 271 267 265 264 262 260 257 255 254 252 250 249 247 245 244 241 239 236 233 232 226 219 219 213
187 191 192 174 143 129 113 79 60 50 40 38 33 31 35 33 33 34 31 30 29 27 27 24 20 15 13 15 16 19 20 21 23 24 24 24 23 21 19 16 15 13 11 10 8 5 3 360 356 350 341 331 323 316 311 305 298 291 285 280 277 273 269 268 268 265 262 258 256 255 254 252 251 249 247 246 244 242 241 239 238 235 228 222 216
189 185 186 168 142 135 127 108 86 69 56 51 43 36 33 29 27 27 26 25 23 20 19 17 16 13 9 7 6 6 7 7 9 10 11 12 10 10 10 8 7 7 7 7 6 4 2 360 358 355 350 343 335 328 321 313 305 297 291 286 281 276 272 270 269 266 264 262 259 256 255 254 252 250 248 247 245 243 242 241 240 240 236 230 223
188 178 170 146 124 115 106 89 72 63 52 42 40 35 32 29 23 20 20 19 17 17 15 13 10 7 4 1 357 355 353 355 357 358 360 360 357 357 357 356 356 357 357 357 357 357 356 356 356 354 351 348 343 337 330 321 311 302 294 288 283 278 275 273 270 268 266 264 261 258 256 254 252 251 250 248 246 244 242 241 240 239 238 236 230
172 157 140 126 114 100 91 82 67 57 43 28 29 27 24 22 12 7 9 9 9 10 10 10 5 2 0 355 353 351 347 345 346 345 347 349 348 346 345 344 344 344 345 346 345 346 346 346 348 349 350 349 346 342 336 327 317 307 298 291 286 281 277 274 271 270 269 266 263 260 258 256 253 251 250 248 246 245 242 241 240 239 237 236 233
131 105 81 80 86 83 80 78 72 60 41 24 21 18 18 16 6 360 357 359 3 4 4 4 358 355 353 349 347 347 345 343 339 336 337 339 340 339 337 337 336 333 331 333 335 336 337 337 338 340 341 342 342 340 336 331 324 314 305 297 291 286 281 277 274 273 271 268 264 261 260 258 254 251 250 248 245 244 243 242 241 239 237 235 233
116 101 87 70 66 77 78 71 65 54 35 21 17 15 12 7 3 0 353 352 356 355 357 358 353 349 347 344 342 341 341 340 335 332 331 331 333 334 333 334 335 331 328 328 328 328 329 330 330 330 331 332 333 332 330 328 325 320 312 304 297 292 286 280 277 275 274 271 266 263 261 258 254 252 251 250 246 243 243 242 241 241 239 236 233
126 119 122 125 136 112 85 49 30 23 9 3 3 1 359 351 348 350 348 346 345 345 347 349 347 344 342 340 338 336 335 335 332 327 324 324 326 328 328 329 331 330 328 327 325 324 323 323 323 323 323 323 323 323 322 322 321 318 313 308 302 297 291 285 280 277 276 273 269 265 263 258 255 254 253 252 249 245 243 241 240 240 239 236 234
143 149 201 212 230 253 286 304 313 317 318 321 323 326 329 328 330 335 335 334 334 334 338 339 337 335 334 332 331 330 329 329 327 323 320 319 320 321 322 323 324 325 325 324 322 320 319 318 318 317 316 316 315 314 314 314 313 312 309 306 303 299 295 290 286 283 278 275 271 268 265 262 258 257 256 254 251 248 245 243 241 239 236 235 234
182 196 216 220 224 231 235 250 264 274 284 292 295 299 302 303 308 317 322 322 321 322 326 330 328 326 325 324 322 321 322 322 322 320 319 318 317 317 318 318 319 320 320 319 318 317 315 314 313 312 310 309 306 305 307 307 305 304 303 301 299 297 294 291 289 287 283 278 274 270 267 265 263 261 259 257 254 251 247 245 244 239 234 232 233
199 207 215 210 210 215 220 231 240 246 256 264 269 274 278 279 284 294 301 305 306 308 311 315 316 316 315 315 315 314 314 314 314 314 314 314 314 314 314 314 315 316 315 315 314 313 311 310 309 308 305 302 299 297 299 299 297 296 296 295 294 292 291 290 288 286 285 282 277 273 269 267 266 264 262 260 257 254 250 248 246 241 235 230 228
207 211 214 211 210 213 218 227 234 240 247 252 257 261 264 265 271 280 287 292 293 294 297 300 302 304 305 306 307 308 308 307 307 307 307 308 309 309 309 309 311 312 312 313 312 309 308 306 305 303 300 297 294 294 294 292 289 289 290 289 288 288 287 286 284 282 282 282 280 278 274 270 266 264 263 261 259 256 253 250 248 244 239 235 229
224 223 220 214 211 212 220 229 234 239 245 251 257 261 261 264 271 279 284 287 287 289 291 292 294 296 298 299 301 303 303 301 301 301 301 302 303 303 303 304 305 307 309 310 310 308 306 304 302 299 296 293 291 291 290 286 281 281 283 283 282 282 282 281 279 278 278 278 279 279 277 273 268 264 262 261 259 258 256 253 251 247 243 241 236
244 241 229 216 214 221 228 233 238 243 246 249 255 262 268 275 281 285 286 288 291 295 297 296 295 295 296 297 299 300 299 298 297 297 297 298 297 296 297 298 299 301 304 305 306 305 304 303 301 298 295 292 290 289 286 281 276 276 277 278 277 276 277 277 275 273 273 274 274 275 275 274 271 267 263 260 258 258 257 255 254 250 246 244 241
275 273 265 249 233 228 232 239 247 251 251 255 271 281 285 287 287 289 291 295 299 301 301 300 299 297 298 298 297 296 296 295 296 296 296 295 294 294 294 294 294 296 299 300 301 301 300 299 298 296 295 292 290 289 286 279 274 273 273 274 274 274 274 273 271 269 269 269 269 269 269 271 272 269 265 261 257 256 255 253 252 250 248 246 243
302 308 306 298 285 265 254 250 252 261 289 310 309 301 295 294 298 301 300 301 303 303 302 300 298 298 299 299 298 297 297 297 298 298 296 294 295 296 296 295 294 294 295 295 295 295 295 294 293 292 292 290 288 287 286 282 275 272 271 271 272 272 271 270 269 267 266 265 266 265 265 265 267 267 266 263 258 255 253 251 249 247 247 246 244
296 298 292 298 303 296 283 275 351 3 344 329 320 314 313 313 312 308 303 302 304 303 301 299 298 299 301 301 301 301 301 300 300 299 298 297 298 298 297 296 295 293 292 291 290 289 289 289 289 288 287 285 284 284 284 283 280 276 272 271 271 270 269 268 267 267 265 264 264 263 261 262 262 263 264 264 260 255 252 249 247 245 245 244 244
288 294 297 308 320 337 7 24 17 358 343 333 326 324 322 318 314 310 305 304 304 301 299 299 299 301 303 303 304 304 303 303 303 301 300 299 299 298 297 296 294 292 290 289 287 287 286 285 285 285 282 280 280 281 281 281 281 280 277 274 271 268 266 265 265 266 265 264 264 262 260 259 259 259 261 262 261 256 250 247 246 245 243 243 245
300 310 333 1 10 19 22 10 358 354 346 335 329 326 325 320 316 312 309 307 305 302 302 303 303 304 305 305 306 306 304 303 302 300 300 299 298 298 297 296 295 292 289 288 287 286 284 283 281 280 279 277 277 278 278 278 279 279 279 278 275 271 267 263 263 264 264 263 263 263 260 258 257 258 258 259 258 254 248 245 245 244 242 241 244
321 350 36 30 7 4 6 358 356 358 350 335 329 327 326 322 317 315 313 310 308 308 308 308 306 307 307 307 306 305 304 302 301 300 300 300 299 299 298 297 295 292 290 289 287 285 283 281 280 278 277 276 276 276 276 276 277 279 279 279 278 275 271 267 264 263 262 261 260 260 260 258 257 258 258 257 256 251 246 244 244 242 240 242 243
90 76 21 4 359 1 3 360 359 354 342 333 329 328 328 325 320 319 316 314 313 313 311 309 309 309 308 307 306 305 303 302 301 301 300 299 299 298 297 296 295 293 291 289 287 286 284 283 281 280 278 277 276 276 277 277 277 277 277 277 276 275 272 269 267 264 262 261 258 257 257 257 257 258 257 256 255 251 245 243 242 238 237 244 245
109 56 358 355 1 4 4 359 347 337 333 331 330 331 331 327 324 321 317 316 314 313 312 311 310 310 308 308 308 306 304 303 302 301 300 298 297 297 296 296 295 294 292 291 289 289 287 285 284 282 280 278 277 277 278 278 277 276 275 275 273 272 270 269 268 265 262 260 257 255 254 254 255 257 257 255 253 251 247 242 240 238 240 245 244
65 20 2 351 354 359 354 336 330 332 333 332 332 333 331 327 323 320 317 316 315 314 314 313 311 310 310 310 309 307 306 304 303 302 300 297 297 297 295 295 295 294 293 292 291 291 288 286 285 284 282 282 282 281 280 280 279 278 277 275 272 271 269 267 265 263 260 257 256 255 253 253 252 254 256 255 251 249 247 242 240 242 245 246 241
35 17 352 338 345 350 339 328 329 331 332 334 333 331 329 325 320 318 318 318 316 316 315 313 311 311 311 311 310 309 308 306 305 303 300 297 297 297 296 296 295 295 294 292 292 292 289 287 286 287 286 285 285 285 284 283 283 282 281 279 275 273 270 266 262 260 258 256 255 254 253 252 251 252 254 254 250 247 245 242 241 243 245 244 240
88 55 348 339 339 335 328 325 327 330 331 334 333 329 324 320 317 319 321 319 317 316 314 312 312 312 312 312 311 310 309 308 306 304 300 297 297 297 296 296 295 294 293 291 291 291 290 288 287 288 288 287 287 288 287 286 286 287 286 284 281 278 274 268 264 260 258 256 255 253 253 252 251 251 253 253 251 247 245 243 240 241 242 240 236
84 21 339 334 332 328 324 323 324 328 330 331 331 327 320 316 319 321 320 317 316 316 314 313 313 312 312 313 311 310 309 307 306 304 300 298 298 297 296 296 295 293 290 288 289 289 288 287 287 288 289 289 289 290 291 290 292 292 293 292 291 288 283 277 269 263 259 257 254 252 252 252 252 252 253 253 251 247 245 242 240 238 237 234 230
27 346 327 326 327 325 323 323 323 326 328 328 328 325 318 316 319 319 317 316 316 315 314 313 312 312 312 312 310 309 308 307 306 304 301 299 299 298 296 295 294 291 287 286 286 287 286 285 284 285 287 288 289 290 291 292 293 294 294 295 295 293 290 287 282 274 267 263 260 256 253 251 251 251 249 249 249 247 244 241 240 237 234 230 227
359 333 321 322 325 324 323 324 322 325 327 325 324 322 319 317 316 315 315 316 315 315 313 312 312 312 311 311 309 307 308 308 308 307 304 301 299 296 294 292 290 288 287 286 285 285 284 282 281 281 283 283 283 284 285 287 288 288 289 290 291 291 292 292 289 284 275 268 265 263 258 254 251 251 250 249 248 247 244 241 238 236 232 228 226
324 319 317 321 323 321 321 320 319 321 324 322 321 321 320 317 315 315 317 317 315 314 312 311 311 311 310 309 308 308 308 307 306 305 302 299 297 294 291 287 286 285 284 283 281 280 278 277 277 279 280 280 279 279 280 281 281 281 282 283 283 285 288 289 289 287 283 276 267 263 261 257 254 252 251 249 245 242 238 236 234 232 229 227 226
313 312 314 318 318 317 316 316 316 319 320 319 319 319 318 316 316 318 319 317 314 313 311 310 310 309 308 309 308 307 306 304 303 302 299 296 294 292 289 287 285 283 281 281 281 280 279 278 278 278 279 280 279 279 279 279 280 280 281 280 279 278 280 283 285 288 290 288 278 265 257 253 251 248 246 243 240 236 233 231 230 229 227 225 223
309 309 312 315 315 314 313 313 314 317 318 317 317 318 317 317 319 321 320 316 314 313 311 309 309 308 308 309 308 305 303 302 301 300 298 297 294 291 289 289 289 288 286 286 286 286 287 288 287 286 285 285 287 289 290 290 289 289 287 286 284 282 281 281 283 285 287 287 282 271 257 246 241 239 239 237 234 231 228 226 226 226 225 222 220
307 309 312 314 313 313 313 313 314 316 316 315 315 315 316 319 321 322 319 316 313 311 308 307 307 307 307 307 305 302 301 300 299 299 299 298 297 296 294 292 290 291 292 292 291 291 291 292 293 292 292 292 293 295 296 296 294 293 292 289 287 286 284 283 282 284 284 281 276 272 263 250 239 231 231 234 234 230 228 226 223 223 223 221 219
Height
781 781 781 780 779 778 777 775 774 773 771 770 769 768 768 767 767 767 768 769 769 771 772 773 774 775 776 777 778 779 780 781 782 784 785 786 786 786 786 786 788 789 791 791 792 792 793 794 794 795 797 798 800 801 802 804 806 807 809 810 811 812 814 815 816 818 820 823 825 826 826 827 827 828 828 829 829 829 829 830 830 830 830 831 831
783 783 783 783 782 780 779 777 776 775 774 772 771 770 770 769 769 769 769 769 770 771 772 773 775 776 777 777 778 779 780 781 782 784 785 786 785 785 785 786 787 788 789 789 790 791 791 792 792 792 793 794 796 798 800 802 804 806 807 809 810 810 811 812 812 814 817 819 822 825 827 827 827 827 827 828 828 828 829 829 829 829 829 830 830
785 786 787 786 785 783 781 780 778 778 776 775 774 773 772 772 772 771 770 770 770 771 772 774 775 776 777 778 779 779 780 781 782 783 784 785 785 785 786 787 787 788 788 789 789 789 790 790 790 791 791 792 793 795 796 799 801 803 805 806 808 809 810 810 810 811 813 817 821 823 824 826 826 826 826 825 826 827 827 828 828 828 828 828 829
790 790 790 789 788 787 784 782 781 780 778 777 776 775 774 775 775 774 773 772 772 773 773 775 776 777 779 779 780 781 781 781 782 782 783 784 785 785 786 787 787 787 788 788 788 788 788 788 789 789 789 790 791 792 793 794 796 798 800 802 805 807 809 809 809 810 810 813 817 819 822 824 821 821 823 824 825 826 826 826 826 827 827 827 827
795 793 792 791 791 791 788 786 783 781 779 779 779 778 778 778 779 778 776 775 774 774 775 776 777 778 779 780 781 782 782 782 782 782 782 783 784 784 785 786 786 786 787 787 787 787 788 788 788 787 787 788 789 790 791 792 793 794 796 797 799 801 803 805 807 809 808 808 811 813 817 818 815 815 819 822 823 823 824 825 825 825 825 826 826
798 796 795 793 793 794 794 790 785 782 782 782 782 782 781 781 781 781 779 778 777 777 777 777 777 778 780 781 782 783 783 783 782 782 782 783 783 784 784 784 785 785 785 785 786 786 787 787 787 787 787 787 787 789 789 791 791 792 793 794 795 796 798 801 802 804 806 807 807 807 808 808 809 812 817 819 822 822 823 823 823 824 824 825 825
801 799 797 795 794 796 797 795 789 785 784 784 784 784 784 784 784 783 782 781 779 779 779 779 779 780 781 781 782 783 784 783 783 782 783 783 784 784 784 784 784 784 784 784 784 784 785 786 786 786 786 786 787 787 788 789 789 790 791 792 792 794 795 796 797 799 802 803 804 803 803 804 804 807 811 814 818 820 821 822 822 822 823 823 824
801 800 800 799 798 797 799 800 794 789 786 785 785 786 787 787 787 786 785 783 782 782 781 781 781 782 782 782 783 784 784 784 783 782 782 783 784 784 784 784 784 784 784 784 784 784 784 784 785 785 785 786 786 786 786 787 788 788 789 790 790 791 791 792 793 795 796 797 799 800 801 802 802 802 804 806 809 814 817 819 819 820 821 821 821
800 800 801 802 801 799 801 802 798 793 788 786 787 789 790 790 790 789 787 786 785 784 784 783 783 783 783 784 784 785 785 785 783 781 781 782 783 783 784 784 784 784 784 784 784 783 783 783 783 783 783 784 784 784 785 786 787 787 787 788 788 789 789 790 790 790 790 792 795 797 798 800 801 801 801 801 803 806 811 815 815 817 819 817 817
801 799 800 802 803 803 804 804 800 796 791 789 789 791 793 793 792 790 789 789 789 788 787 786 786 785 785 785 785 785 786 786 784 782 781 781 782 782 783 783 783 783 783 784 784 783 783 782 782 782 782 782 782 783 783 784 785 785 786 786 787 787 788 788 788 787 787 788 790 792 794 796 798 799 798 799 799 800 803 808 809 810 812 811 813
801 800 801 804 805 805 805 803 801 798 795 792 791 793 795 795 793 792 792 792 791 791 790 789 789 788 787 786 786 786 786 786 785 784 782 782 782 782 783 783 783 783 783 783 783 783 783 782 781 781 781 780 781 781 781 782 782 783 784 784 784 785 786 787 787 787 786 787 787 788 788 789 790 791 792 794 795 796 798 802 804 804 805 806 807
803 802 804 805 806 806 805 804 802 801 798 795 795 797 798 796 794 792 793 794 794 794 793 792 791 790 790 789 788 787 787 786 786 785 784 783 783 783 782 783 783 783 783 782 782 782 782 781 781 780 779 779 779 779 779 780 780 781 782 782 782 783 784 785 785 785 785 784 784 785 785 785 785 785 787 788 789 791 793 796 799 801 803 804 804
803 803 805 806 807 807 806 806 804 803 802 800 799 799 798 796 794 794 796 797 797 796 795 794 794 793 792 791 790 789 788 788 787 785 785 784 784 783 783 783 783 782 782 782 782 782 781 781 780 779 778 777 777 777 777 777 778 779 779 780 780 781 782 782 782 782 783 782 782 782 782 783 783 783 785 785 786 787 789 792 796 797 798 800 802
803 803 806 808 808 808 808 808 807 807 807 804 800 798 797 796 795 797 798 799 799 798 798 797 796 795 795 793 792 791 790 789 788 786 786 785 784 784 783 783 783 782 782 781 781 781 781 781 780 779 778 776 775 775 775 775 776 776 777 777 778 778 779 779 780 780 781 781 781 780 780 779 780 781 783 783 783 785 785 787 791 795 796 797 799
804 805 807 809 809 810 810 810 810 810 808 803 799 798 798 798 799 800 801 801 801 801 801 800 799 798 796 795 793 793 792 791 789 788 787 786 785 785 784 783 783 782 781 781 780 780 780 780 780 779 778 776 774 773 773 773 773 774 774 775 775 776 777 777 777 778 778 778 779 778 778 777 777 779 780 780 780 781 781 782 785 790 794 797 798
805 807 809 810 811 811 812 811 810 808 804 801 800 799 799 800 802 803 804 804 804 804 804 802 801 799 797 796 794 793 793 791 791 790 788 787 786 786 785 784 784 783 781 780 779 778 779 779 779 779 778 776 774 772 771 771 771 771 772 773 773 774 774 774 775 775 775 776 776 776 776 775 775 776 777 777 777 778 779 779 779 781 786 792 796
807 809 810 811 811 812 812 811 809 806 804 802 801 801 801 803 804 806 806 806 806 806 806 805 803 801 799 797 796 794 793 793 792 791 790 789 788 787 787 786 785 784 782 780 779 778 777 777 778 778 777 775 773 771 770 769 769 769 769 770 770 771 771 771 772 773 773 773 773 773 773 772 773 774 774 774 775 775 775 775 775 775 777 782 788
810 810 811 812 812 812 810 809 808 806 805 804 803 803 804 805 806 807 807 807 807 807 806 806 804 802 800 799 797 796 795 794 793 792 791 789 788 787 787 786 785 784 782 781 779 778 776 776 776 776 776 774 772 770 768 767 767 767 767 767 768 769 769 768 769 770 770 771 770 770 770 770 771 772 771 772 772 772 772 772 771 771 772 773 777
810 810 812 812 811 811 809 808 807 806 806 805 805 805 805 806 806 806 806 806 806 806 806 806 804 803 802 801 800 798 797 796 795 794 792 790 789 788 787 786 785 784 782 781 779 778 777 775 774 774 774 773 771 769 767 765 765 765 765 765 765 766 766 766 766 767 767 768 767 767 767 766 767 769 769 769 769 769 769 769 769 768 768 768 770
809 810 811 810 810 809 808 808 807 806 806 805 805 806 806 806 806 806 806 805 805 805 805 805 805 804 803 802 802 801 800 799 798 796 794 792 791 790 789 788 786 785 783 781 779 778 776 774 773 772 772 771 770 768 766 764 763 763 762 763 763 763 763 763 764 764 764 764 764 763 763 763 764 765 765 765 765 766 766 767 766 766 766 766 766
809 809 809 808 808 808 807 807 807 806 806 806 807 807 807 807 806 806 806 806 806 805 805 805 804 804 804 803 803 802 802 801 800 798 796 795 793 792 791 790 788 787 785 783 781 778 776 774 772 771 769 769 767 765 764 762 761 760 760 760 760 760 760 761 761 761 761 761 760 759 759 760 761 762 761 761 762 762 763 763 764 764 764 764 764
807 807 807 807 806 806 806 806 806 807 807 808 809 809 809 808 807 807 807 807 806 806 805 805 805 805 804 804 804 803 803 802 800 799 797 795 794 792 791 790 788 787 785 784 782 780 778 776 774 771 769 768 766 764 762 760 758 758 757 757 757 757 757 758 758 758 758 758 757 756 755 756 758 758 757 757 758 759 760 760 760 761 761 761 761
805 805 805 805 805 805 805 805 806 807 808 809 809 809 809 808 808 808 807 807 807 806 805 805 804 804 804 804 804 803 803 801 800 798 796 795 794 792 791 789 788 787 785 784 782 780 779 777 774 772 769 767 765 763 761 759 758 757 756 756 755 755 755 755 755 754 755 754 753 752 751 753 754 753 752 753 754 755 756 756 756 757 757 757 758
803 804 804 804 804 804 805 805 806 808 809 810 810 810 809 808 808 808 808 807 806 806 805 804 804 804 804 804 803 802 801 800 799 797 796 794 793 792 790 789 788 786 785 784 782 780 778 776 773 770 768 766 764 761 760 759 758 757 756 755 754 753 753 752 751 751 751 750 749 748 748 749 750 748 747 748 750 751 752 752 752 752 752 753 755
802 803 803 804 804 805 805 806 807 808 810 810 809 809 809 808 809 808 808 808 807 806 805 804 804 803 803 802 802 801 800 799 797 796 794 793 792 791 789 788 787 785 784 782 781 779 777 774 771 768 766 764 762 760 758 757 756 755 755 754 752 751 750 749 748 747 747 746 745 744 744 745 746 744 742 744 746 747 748 748 748 748 748 749 751
803 803 805 805 805 806 806 807 808 808 809 809 809 809 808 809 809 809 808 808 807 807 805 805 804 803 802 801 800 799 798 797 796 794 793 791 789 788 786 785 784 782 780 778 776 775 773 770 768 766 763 761 759 758 757 755 754 752 751 751 749 748 746 745 744 744 743 742 741 740 740 741 741 739 738 740 741 742 742 743 743 744 745 747 747
803 804 805 805 806 806 806 807 808 808 808 809 808 809 809 809 808 808 808 807 806 806 804 803 803 802 801 800 798 798 796 795 794 792 791 789 787 786 784 782 781 779 776 774 772 770 768 767 765 762 760 759 757 755 754 753 751 750 748 747 745 744 743 741 741 740 739 738 737 736 736 736 736 735 734 736 737 737 737 737 738 739 742 744 744
802 803 804 804 805 806 806 807 807 807 808 807 807 808 808 808 808 807 807 806 805 805 803 803 802 801 800 798 797 796 794 792 791 789 788 786 784 783 781 780 778 776 774 771 769 767 765 763 761 759 757 756 754 753 751 750 749 747 746 744 742 741 739 738 736 735 735 734 733 732 732 731 731 730 730 732 732 733 733 732 732 734 737 738 739
802 803 803 803 804 804 805 806 806 806 807 806 807 807 807 807 807 806 806 805 805 804 803 802 801 800 799 798 796 795 793 791 789 786 784 782 780 778 777 775 773 771 770 768 766 764 762 759 757 756 754 753 752 750 749 748 747 745 744 742 740 738 736 734 732 731 730 729 728 728 727 727 727 726 726 727 727 728 729 728 728 730 732 732 734
800 801 801 802 803 803 803 804 804 805 805 805 806 806 806 806 805 805 805 804 804 803 802 801 800 799 798 796 795 793 792 790 788 786 783 780 778 776 773 771 769 767 766 764 762 760 758 756 754 752 751 750 748 747 746 745 744 743 741 739 737 735 734 732 729 727 726 724 724 723 722 721 722 721 722 722 723 723 723 722 723 726 727 726 727
799 799 800 800 801 801 802 802 803 803 803 804 804 804 804 804 804 804 803 803 802 801 800 800 798 797 796 795 793 792 790 788 786 785 782 780 777 774 771 768 765 763 762 759 758 755 753 752 750 748 747 745 744 743 742 741 741 739 738 736 734 732 730 728 726 724 722 720 719 718 717 716 716 715 716 717 717 718 717 718 719 721 722 721 720
798 798 798 799 799 800 800 801 801 801 801 802 802 802 802 802 802 802 801 801 801 800 799 798 796 795 794 793 791 790 788 786 784 782 780 777 775 772 769 766 763 760 758 755 753 751 749 748 746 744 742 740 739 738 737 737 736 735 734 732 730 728 725 724 722 720 718 716 714 713 712 711 710 710 710 711 711 711 712 713 715 716 716 716 715
797 797 797 797 797 797 798 798 799 799 799 799 799 799 800 800 800 800 800 800 799 798 798 796 794 793 792 790 789 787 785 783 780 778 776 774 771 768 766 763 760 758 755 752 749 747 745 743 742 740 737 735 733 732 732 732 731 729 729 727 725 723 720 718 716 715 713 711 710 709 707 706 705 705 705 705 705 705 707 708 710 710 710 709 709
796 796 796 796 795 795 796 796 797 798 798 798 798 798 798 798 798 798 798 798 797 796 795 794 792 791 789 788 786 783 781 779 776 774 772 769 767 765 762 760 758 755 752 749 747 744 741 740 738 736 733 730 728 726 726 726 725 723 723 722 720 718 715 713 711 709 708 706 705 704 702 700 700 700 700 699 699 700 701 702 704 704 703 703 703
796 796 796 796 795 795 795 795 796 797 797 797 797 797 797 797 797 797 797 796 795 794 793 792 790 788 786 785 783 780 778 775 773 771 768 766 763 761 759 757 755 752 750 746 744 741 738 736 733 732 729 725 722 720 720 720 719 718 717 716 714 712 709 706 704 703 702 700 699 698 697 695 694 694 694 694 694 695 696 696 696 696 696 696 697
795 795 795 795 795 794 794 795 795 796 797 797 797 797 796 796 796 796 795 795 794 793 791 790 788 786 784 782 780 777 775 772 770 767 765 762 760 758 756 754 751 748 746 743 740 737 735 732 729 727 725 720 716 714 713 713 712 712 711 710 708 705 703 700 697 696 695 694 693 692 690 689 688 687 688 688 689 690 690 690 689 689 689 690 689
794 794 794 794 794 794 794 795 795 796 796 797 796 796 795 795 795 795 794 793 792 790 789 787 785 783 781 779 777 775 772 769 767 764 761 759 757 754 752 751 748 744 741 738 735 732 730 727 724 722 720 715 710 708 707 706 705 705 705 704 702 699 696 693 690 689 688 687 686 685 684 682 681 680 681 682 683 684 684 684 683 683 683 683 681
793 793 793 793 794 794 794 795 795 796 796 795 795 794 794 794 793 793 791 790 789 787 785 784 782 780 778 776 774 772 769 767 764 761 759 756 753 751 749 747 745 741 736 734 731 727 724 721 719 716 713 710 705 701 701 700 698 699 698 697 695 693 689 686 683 681 680 679 678 677 677 676 674 673 674 675 677 678 678 677 677 677 677 675 672
791 792 792 793 793 794 794 794 794 795 795 794 794 793 792 792 791 790 788 787 785 783 782 780 777 776 774 772 771 769 766 764 761 758 756 753 750 748 746 743 741 738 733 729 726 723 718 715 712 710 707 705 700 695 695 694 693 693 693 692 690 687 683 679 676 673 672 671 670 669 668 668 667 667 667 669 670 671 671 670 670 671 671 667 664
789 790 791 792 792 793 793 793 794 794 794 793 792 791 790 789 787 786 785 783 781 779 777 775 773 771 770 768 767 765 763 761 758 755 752 750 747 745 742 739 737 734 730 725 721 718 714 709 706 704 701 699 695 691 689 689 689 688 687 687 685 682 677 673 669 666 664 663 662 661 660 660 660 660 660 662 662 664 664 664 664 665 663 658 659
788 789 789 791 791 792 793 793 793 793 792 791 790 788 787 786 784 783 781 779 778 775 773 771 768 767 765 764 763 761 759 757 755 752 749 746 744 742 739 735 733 729 726 721 717 715 711 704 700 698 695 692 690 687 684 683 683 682 681 681 680 676 672 669 664 660 658 655 653 652 651 652 653 653 653 654 655 656 657 657 656 656 654 652 656
787 788 788 789 790 791 792 792 791 791 790 789 787 786 784 783 781 780 778 776 774 772 769 767 765 763 761 760 758 757 755 753 751 749 745 741 739 738 735 732 729 725 721 717 714 711 707 699 694 692 690 687 685 684 681 678 676 676 675 674 672 668 666 664 660 654 650 647 644 643 643 644 646 646 647 647 648 649 650 649 648 648 647 648 652
786 787 787 788 789 789 790 790 790 789 788 786 785 783 782 781 779 777 775 773 771 769 766 764 761 759 757 756 754 752 751 749 747 745 741 737 734 733 730 728 726 722 717 713 709 706 702 695 688 685 684 682 680 679 677 674 671 670 669 666 664 660 658 657 653 647 642 638 636 635 635 637 638 639 640 641 641 642 642 642 642 642 642 644 647
785 786 786 787 788 788 788 788 787 787 786 784 783 781 779 778 776 774 772 770 768 767 764 761 759 756 754 752 750 748 747 745 742 740 737 733 730 728 726 724 721 718 714 709 705 702 698 691 685 680 678 678 676 673 672 670 668 665 662 659 656 652 650 647 644 639 635 631 628 627 628 629 630 632 633 634 634 635 635 636 636 636 638 639 641
785 785 785 786 786 786 786 786 785 785 784 782 781 780 777 775 773 772 770 768 766 764 761 758 756 753 750 748 745 743 742 740 738 736 733 729 727 724 722 720 717 714 710 705 701 698 694 688 683 677 673 672 672 669 667 666 664 661 657 654 650 646 642 639 635 630 627 624 621 620 621 622 623 624 626 627 627 627 628 629 629 630 632 633 635
784 784 784 785 785 785 784 783 782 782 781 780 779 778 776 773 771 770 769 767 764 761 758 756 753 750 748 746 742 739 737 735 734 732 730 727 724 721 718 716 713 710 706 702 697 693 690 685 679 674 670 667 667 666 664 662 661 658 654 651 647 642 637 632 628 623 620 617 615 614 614 615 615 617 618 619 619 619 620 621 622 624 626 627 628
783 783 783 783 783 782 782 780 779 779 778 777 776 776 774 772 770 769 767 764 762 759 756 753 751 748 745 743 739 735 733 731 729 728 726 724 722 719 715 712 709 706 702 698 694 689 686 681 675 670 666 662 660 660 659 657 656 653 649 646 643 638 633 628 623 619 615 612 610 608 608 608 609 609 610 611 612 613 614 615 616 617 619 620 621
782 782 783 782 781 781 780 778 777 776 775 775 774 773 772 771 769 767 765 762 759 757 754 751 748 745 742 739 737 734 730 728 726 724 722 720 717 715 712 708 706 702 697 693 689 685 681 676 670 665 661 656 653 653 652 651 649 646 642 640 637 634 630 626 620 616 612 609 606 603 602 602 602 602 603 604 604 605 606 608 609 610 611 613 615
781 781 781 780 780 779 778 777 776 774 773 772 771 771 770 769 767 765 763 760 757 754 751 748 745 743 740 736 734 732 729 725 722 720 718 716 714 712 707 703 700 698 694 689 684 679 675 671 666 662 657 651 646 645 645 644 641 638 635 633 630 628 625 621 617 613 610 606 602 599 596 595 596 597 597 597 598 598 599 600 602 603 605 606 608
780 780 780 779 779 778 776 775 774 773 772 771 769 768 768 767 765 763 761 758 755 751 748 746 743 740 737 734 731 728 726 723 719 716 713 710 708 707 705 700 695 692 690 686 681 675 670 667 662 657 654 649 642 638 638 637 634 631 629 626 623 621 619 616 612 609 606 603 598 594 591 589 589 590 591 591 592 592 593 593 595 597 598 600 602
779 778 777 777 777 776 775 773 772 771 770 769 768 767 765 764 763 761 759 756 753 750 746 743 740 738 735 732 729 725 722 720 717 713 710 705 701 700 699 696 692 688 684 681 677 671 667 664 659 653 648 645 640 636 633 631 628 625 623 620 617 615 613 611 608 606 602 597 593 590 586 584 584 584 585 586 587 587 588 588 589 591 593 595 597